Terminal Aerodrome Forecast
Issued by NWS

Home | Current Version | Previous Version | Text Only | Print | Product List | Glossary On
Versions: 1 2 3 4 5 6 7 8 9 10 11 12
249
FTPA31 PHFO 131120
TAFHMK
TAF
PHMK 131120Z 1312/1412 03004KT P6SM FEW030
     FM132100 07011G18KT P6SM SCT025
     FM140400 04009KT P6SM FEW025
      AMD NOT SKED=

USA.gov is the U.S. government's official web portal to all federal, state and local government web resources and services.